GW7052 Weather Reports


Display with metric or nautical units.
time (UTC)temp
F
wind
direction
speed
MPH
gust
MPH
rain 1hr
in
rain 24hr
in
rain mn
in
humidity
%
barometer
mb
20260505193734 63 183 0.0 1.0 0.00 0.00 0.00 65 1018.2
20260505193232 63 184 1.0 1.0 0.00 0.00 0.00 67 1018.2
20260505192730 63 183 0.0 0.0 0.00 0.00 0.00 68 1017.9
20260505192227 62 183 0.0 1.0 0.00 0.00 0.00 68 1017.9
20260505191725 62 183 0.0 0.0 0.00 0.00 0.00 67 1018.1
20260505191224 62 201 0.0 2.0 0.00 0.00 0.00 67 1018.1
20260505190719 62 201 1.0 1.0 0.00 0.00 0.00 67 1018.1
20260505190219 62 203 1.0 1.0 0.00 0.00 0.00 68 1018.0
20260505185716 62 183 1.0 1.0 0.00 0.00 0.00 67 1017.9
20260505185212 62 183 1.0 1.0 0.00 0.00 0.00 68 1018.1
20260505184708 62 183 1.0 1.0 0.00 0.00 0.00 67 1018.0
20260505184206 62 175 0.0 1.0 0.00 0.00 0.00 66 1018.2
20260505183703 62 168 0.0 1.0 0.00 0.00 0.00 69 1018.0
20260505183200 62 181 1.0 1.0 0.00 0.00 0.00 68 1018.2
20260505182656 62 223 1.0 1.0 0.00 0.00 0.00 68 1018.2
20260505182154 60 224 0.0 1.0 0.00 0.00 0.00 71 1018.0
20260505181650 61 218 0.0 0.0 0.00 0.00 0.00 69 1017.9
20260505181148 61 217 1.0 1.0 0.00 0.00 0.00 70 1018.2
20260505180643 60 218 1.0 2.0 0.00 0.00 0.00 71 1017.9
20260505180141 60 218 1.0 1.0 0.00 0.00 0.00 72 1018.3
20260505175637 59 218 1.0 1.0 0.00 0.00 0.00 73 1017.9
20260505175133 58 218 0.0 0.0 0.00 0.00 0.00 76 1018.1
20260505174630 58 218 0.0 1.0 0.00 0.00 0.00 76 1018.1
20260505174126 58 219 1.0 1.0 0.00 0.00 0.00 75 1018.2
20260505173623 57 218 0.0 1.0 0.00 0.00 0.00 77 1018.1
20260505173120 57 218 1.0 1.0 0.00 0.00 0.00 77 1018.1
20260505172618 58 218 1.0 1.0 0.00 0.00 0.00 76 1018.0
20260505172114 57 218 1.0 1.0 0.00 0.00 0.00 77 1018.0
20260505171608 57 218 1.0 1.0 0.00 0.00 0.00 77 1017.8
20260505171106 58 218 1.0 1.0 0.00 0.00 0.00 77 1017.9
20260505170603 58 218 0.0 3.0 0.00 0.00 0.00 76 1017.9
20260505170059 58 206 0.0 0.0 0.00 0.00 0.00 76 1017.9
20260505165554 58 206 0.0 0.0 0.00 0.00 0.00 77 1017.9
20260505165050 57 206 1.0 1.0 0.00 0.00 0.00 78 1017.9
20260505164546 57 206 0.0 0.0 0.00 0.00 0.00 79 1017.9
20260505164044 57 206 0.0 0.0 0.00 0.00 0.00 79 1017.8
20260505163543 57 206 0.0 0.0 0.00 0.00 0.00 78 1017.9
20260505163039 57 206 0.0 1.0 0.00 0.00 0.00 79 1017.6
20260505162538 57 206 0.0 1.0 0.00 0.00 0.00 79 1017.8
20260505162035 57 206 0.0 1.0 0.00 0.00 0.00 79 1017.5
20260505161532 57 206 0.0 1.0 0.00 0.00 0.00 78 1017.6
20260505161029 57 206 1.0 1.0 0.00 0.00 0.00 78 1017.7
20260505160527 57 206 0.0 1.0 0.00 0.00 0.00 78 1017.6
20260505153003 56 206 1.0 1.0 0.00 0.00 0.00 79 1017.7
20260505152500 56 206 0.0 1.0 0.00 0.00 0.00 81 1017.5
20260505151955 56 206 0.0 0.0 0.00 0.00 0.00 80 1017.5
20260505151451 56 206 0.0 1.0 0.00 0.00 0.00 80 1017.4
20260505150949 55 206 0.0 1.0 0.00 0.00 0.00 81 1017.6
20260505150445 55 206 0.0 0.0 0.00 0.00 0.00 81 1017.6
20260505140415 54 206 0.0 0.0 0.00 0.00 0.00 85 1016.9
20260505124829 53 206 0.0 0.0 0.00 0.00 0.00 85 1016.7
20260505124326 53 206 0.0 0.0 0.00 0.00 0.00 85 1016.6
20260505123822 54 206 0.0 0.0 0.00 0.00 0.00 85 1016.6
20260505123318 54 206 0.0 0.0 0.00 0.00 0.00 85 1016.5
20260505122815 54 206 0.0 0.0 0.00 0.00 0.00 85 1016.5
20260505122312 53 206 0.0 1.0 0.00 0.00 0.00 85 1016.6
20260505121809 53 206 0.0 0.0 0.00 0.00 0.00 85 1016.4
20260505121306 53 206 0.0 0.0 0.00 0.00 0.00 85 1016.7
20260505120802 54 206 0.0 1.0 0.00 0.00 0.00 85 1016.5
20260505120258 54 206 0.0 0.0 0.00 0.00 0.00 85 1016.4
20260505115756 54 206 0.0 0.0 0.00 0.00 0.00 85 1016.4
20260505115254 53 206 0.0 1.0 0.00 0.00 0.00 85 1016.4
20260505114751 53 206 0.0 0.0 0.00 0.00 0.00 85 1016.3
20260505114247 54 206 0.0 0.0 0.00 0.00 0.00 85 1016.5
20260505113744 54 206 0.0 0.0 0.00 0.00 0.00 85 1016.3
20260505113241 53 206 0.0 0.0 0.00 0.00 0.00 85 1016.3
20260505112737 53 206 0.0 0.0 0.00 0.00 0.00 85 1016.6
20260505112235 53 206 0.0 0.0 0.00 0.00 0.00 85 1016.4
20260505111735 53 206 1.0 1.0 0.00 0.00 0.00 85 1016.3
20260505111231 53 206 0.0 0.0 0.00 0.00 0.00 86 1016.4
20260505110727 53 206 0.0 0.0 0.00 0.00 0.00 86 1016.2
20260505110225 53 206 0.0 0.0 0.00 0.00 0.00 86 1016.3
20260505102200 53 206 0.0 1.0 0.00 0.00 0.00 87 1015.8
20260505101659 53 206 0.0 1.0 0.00 0.00 0.00 87 1015.9
20260505101154 53 206 0.0 1.0 0.00 0.00 0.00 87 1015.7
20260505100650 53 206 0.0 0.0 0.00 0.00 0.00 87 1015.7
20260505100148 52 206 0.0 1.0 0.00 0.00 0.00 88 1015.8
20260505095643 52 206 0.0 0.0 0.00 0.00 0.00 89 1016.0
20260505095141 52 206 0.0 0.0 0.00 0.00 0.00 89 1016.0
20260505094637 51 206 0.0 0.0 0.00 0.00 0.00 90 1016.0
20260505094133 51 206 0.0 0.0 0.00 0.00 0.00 89 1016.0
20260505093630 52 206 0.0 0.0 0.00 0.00 0.00 89 1015.7
20260505093127 52 206 0.0 0.0 0.00 0.00 0.00 89 1015.8
20260505092624 52 206 0.0 0.0 0.00 0.00 0.00 88 1015.8
20260505092123 52 206 0.0 0.0 0.00 0.00 0.00 88 1015.6
20260505091619 52 206 0.0 0.0 0.00 0.00 0.00 87 1015.6
20260505091118 53 206 0.0 0.0 0.00 0.00 0.00 86 1015.7
20260505090615 53 206 0.0 0.0 0.00 0.00 0.00 86 1015.5
20260505090113 53 206 1.0 1.0 0.00 0.00 0.00 86 1015.4
20260505085610 53 206 0.0 0.0 0.00 0.00 0.00 86 1015.6
20260505085109 53 206 0.0 0.0 0.00 0.00 0.00 85 1015.3
20260505084606 53 206 0.0 0.0 0.00 0.00 0.00 85 1015.4
20260505084104 53 206 1.0 1.0 0.00 0.00 0.00 84 1015.6
20260505083601 53 206 0.0 1.0 0.00 0.00 0.00 84 1015.6
20260505083057 54 206 0.0 1.0 0.00 0.00 0.00 84 1015.4
20260505082553 54 206 0.0 1.0 0.00 0.00 0.00 84 1015.6
20260505082051 54 206 0.0 0.0 0.00 0.00 0.00 83 1015.4
20260505081547 54 206 1.0 1.0 0.00 0.00 0.00 83 1015.5
20260505081044 54 206 0.0 1.0 0.00 0.00 0.00 83 1015.4
20260505080540 54 206 1.0 1.0 0.00 0.00 0.00 83 1015.2
20260505080037 54 206 0.0 0.0 0.00 0.00 0.00 82 1015.3
20260505075533 54 206 0.0 0.0 0.00 0.00 0.00 82 1015.3
20260505075030 55 206 0.0 1.0 0.00 0.00 0.00 82 1015.2
20260505074527 55 206 0.0 2.0 0.00 0.00 0.00 81 1015.1
20260505074024 55 205 0.0 0.0 0.00 0.00 0.00 81 1014.8
20260505073521 55 205 0.0 0.0 0.00 0.00 0.00 80 1014.9
20260505073020 55 204 0.0 1.0 0.00 0.00 0.00 80 1014.5
20260505072515 56 204 0.0 2.0 0.00 0.00 0.00 79 1014.9
20260505072011 56 202 0.0 2.0 0.00 0.00 0.00 79 1014.7
20260505071507 56 219 0.0 0.0 0.00 0.00 0.00 78 1014.7
20260505071005 57 220 1.0 2.0 0.00 0.00 0.00 78 1014.6
20260505070502 56 221 0.0 0.0 0.00 0.00 0.00 78 1014.5
20260505065957 56 225 1.0 2.0 0.00 0.00 0.00 78 1014.5
20260505065454 57 227 1.0 3.0 0.00 0.00 0.00 78 1014.4
20260505064951 57 205 1.0 2.0 0.00 0.00 0.00 78 1014.3
20260505064448 57 204 0.0 0.0 0.00 0.00 0.00 78 1014.4
20260505063946 57 204 0.0 1.0 0.00 0.00 0.00 78 1014.4
20260505063442 57 204 0.0 1.0 0.00 0.00 0.00 77 1014.1
20260505062939 57 204 0.0 1.0 0.00 0.00 0.00 77 1014.2
20260505062436 57 204 1.0 2.0 0.00 0.00 0.00 77 1014.0
20260505061933 57 204 1.0 2.0 0.00 0.00 0.00 77 1014.0
20260505061431 58 204 2.0 2.0 0.00 0.00 0.00 76 1013.9
20260505060928 58 204 1.0 1.0 0.00 0.00 0.00 76 1014.0
20260505060425 58 204 1.0 1.0 0.00 0.00 0.00 76 1013.9
20260505055921 58 203 0.0 1.0 0.00 0.00 0.00 76 1013.9
20260505055418 58 192 1.0 1.0 0.00 0.00 0.00 76 1013.8
20260505054914 59 192 1.0 1.0 0.00 0.00 0.00 76 1013.8
20260505054412 59 192 0.0 0.0 0.00 0.00 0.00 75 1013.9
20260505053910 59 192 0.0 0.0 0.00 0.00 0.00 75 1013.8
20260505053407 59 192 0.0 3.0 0.00 0.00 0.00 74 1013.8
20260505052903 60 214 0.0 1.0 0.00 0.00 0.00 73 1013.7
20260505052400 60 214 0.0 1.0 0.00 0.00 0.00 73 1013.7
20260505051858 60 214 0.0 1.0 0.00 0.00 0.00 73 1013.5
20260505051354 61 214 0.0 1.0 0.00 0.00 0.00 72 1013.6
20260505050853 61 214 0.0 0.0 0.00 0.00 0.00 72 1013.6
20260505050351 62 213 0.0 1.0 0.00 0.00 0.00 71 1013.6
20260505041318 65 213 0.0 2.0 0.00 0.00 0.00 67 1012.7
20260505040815 65 213 1.0 1.0 0.00 0.00 0.00 67 1012.5
20260505040313 65 213 0.0 0.0 0.00 0.00 0.00 67 1012.6
20260505035809 66 213 0.0 1.0 0.00 0.00 0.00 67 1012.5
20260505035305 66 213 1.0 1.0 0.00 0.00 0.00 67 1012.2
20260505034803 66 213 0.0 1.0 0.00 0.00 0.00 67 1012.3
20260505034259 66 212 0.0 0.0 0.00 0.00 0.00 66 1012.1
20260505033756 67 209 0.0 0.0 0.00 0.00 0.00 67 1012.1
20260505033253 67 209 0.0 1.0 0.00 0.00 0.00 66 1012.1
20260505032751 68 209 0.0 2.0 0.00 0.00 0.00 66 1011.9
20260505032247 68 209 1.0 1.0 0.00 0.00 0.00 65 1012.1
20260505031744 68 209 0.0 1.0 0.00 0.00 0.00 64 1012.0
20260505031241 68 208 1.0 1.0 0.00 0.00 0.00 64 1011.8
20260505030738 69 211 0.0 2.0 0.00 0.00 0.00 63 1011.8
20260505030234 69 208 1.0 2.0 0.00 0.00 0.00 64 1011.8
20260505025730 69 206 0.0 2.0 0.00 0.00 0.00 64 1011.8
20260505025228 70 207 1.0 2.0 0.00 0.00 0.00 64 1011.7
20260505024726 70 201 0.0 1.0 0.00 0.00 0.00 64 1011.7
20260505024223 70 200 0.0 1.0 0.00 0.00 0.00 64 1011.6
20260505023720 70 201 0.0 1.0 0.00 0.00 0.00 64 1011.6
20260505023217 70 200 0.0 0.0 0.00 0.00 0.00 64 1011.4
20260505022715 71 200 0.0 0.0 0.00 0.00 0.00 63 1011.4
20260505022211 71 200 0.0 0.0 0.00 0.00 0.00 63 1011.5
20260505021708 71 200 0.0 0.0 0.00 0.00 0.00 62 1011.6
20260505021205 71 200 0.0 0.0 0.00 0.00 0.00 62 1011.4
20260505020701 72 200 0.0 1.0 0.00 0.00 0.00 60 1011.4
20260505020157 72 200 0.0 1.0 0.00 0.00 0.00 60 1011.5
20260505015654 72 201 1.0 2.0 0.00 0.00 0.00 59 1011.7
20260505015150 73 201 1.0 1.0 0.00 0.00 0.00 59 1011.4
20260505014648 73 215 0.0 0.0 0.00 0.00 0.00 58 1011.4
20260505014145 74 219 0.0 0.0 0.00 0.00 0.00 57 1011.4
20260505013642 74 219 0.0 1.0 0.00 0.00 0.00 56 1011.3
20260505013139 75 221 0.0 0.0 0.00 0.00 0.00 55 1011.6
20260505012637 75 221 0.0 0.0 0.00 0.00 0.00 55 1011.6
20260505012134 75 221 0.0 1.0 0.00 0.00 0.00 55 1011.6
20260505011630 76 222 1.0 2.0 0.00 0.00 0.00 54 1011.7
20260505011127 75 217 2.0 3.0 0.00 0.00 0.00 54 1011.7
20260505010627 76 192 1.0 1.0 0.00 0.00 0.00 53 1011.7
20260505010125 76 199 0.0 1.0 0.00 0.00 0.00 53 1011.9
20260505005620 76 209 0.0 2.0 0.00 0.00 0.00 53 1011.9
20260505005118 75 209 1.0 1.0 0.00 0.00 0.00 53 1011.8
20260505004615 76 209 1.0 1.0 0.00 0.00 0.00 53 1011.8
20260505004112 76 209 0.0 1.0 0.00 0.00 0.00 53 1011.9
20260505003609 75 208 1.0 1.0 0.00 0.00 0.00 54 1011.8
20260505003106 75 222 1.0 2.0 0.00 0.00 0.00 54 1012.0
20260505002602 75 222 0.0 1.0 0.00 0.00 0.00 54 1012.0
20260505002101 75 182 1.0 2.0 0.00 0.00 0.00 54 1011.9
20260505001557 74 202 2.0 3.0 0.00 0.00 0.00 54 1012.1
20260505001055 73 221 2.0 3.0 0.00 0.00 0.00 56 1011.9
20260505000552 74 208 5.0 7.0 0.00 0.00 0.00 54 1011.9
20260505000049 74 180 0.0 1.0 0.00 0.00 0.00 55 1012.1
20260504235546 74 168 1.0 1.0 0.00 0.00 0.00 55 1012.1
20260504235043 74 180 1.0 1.0 0.00 0.00 0.00 55 1012.0
20260504234540 74 174 1.0 2.0 0.00 0.00 0.00 56 1012.0
20260504234037 73 200 1.0 3.0 0.00 0.00 0.00 56 1012.1
20260504233532 73 187 0.0 1.0 0.00 0.00 0.00 56 1012.2
20260504233029 74 195 1.0 2.0 0.00 0.00 0.00 54 1012.2
20260504232526 74 194 2.0 4.0 0.00 0.00 0.00 55 1012.4
20260504232024 74 184 1.0 2.0 0.00 0.00 0.00 55 1012.4
20260504231520 73 185 0.0 2.0 0.00 0.00 0.00 55 1012.2
20260504231016 74 206 2.0 3.0 0.00 0.00 0.00 53 1012.5
20260504230513 74 186 1.0 2.0 0.00 0.00 0.00 53 1012.5
20260504230012 74 200 0.0 2.0 0.00 0.00 0.00 53 1012.4
20260504225508 75 182 1.0 2.0 0.00 0.00 0.00 52 1012.5
20260504225005 75 184 2.0 2.0 0.00 0.00 0.00 51 1012.6
20260504224502 76 204 2.0 3.0 0.00 0.00 0.00 49 1012.7
20260504223959 76 206 2.0 2.0 0.00 0.00 0.00 49 1012.7
20260504223455 75 215 2.0 4.0 0.00 0.00 0.00 50 1012.7
20260504222951 76 212 2.0 2.0 0.00 0.00 0.00 50 1012.7
20260504222449 77 153 1.0 4.0 0.00 0.00 0.00 48 1012.8
20260504221946 76 182 1.0 2.0 0.00 0.00 0.00 50 1012.9
20260504221443 75 209 2.0 2.0 0.00 0.00 0.00 51 1013.0
20260504220940 75 207 1.0 1.0 0.00 0.00 0.00 51 1013.0
20260504220436 75 192 1.0 2.0 0.00 0.00 0.00 50 1013.3
20260504215934 75 180 2.0 2.0 0.00 0.00 0.00 50 1013.2
20260504215431 74 194 2.0 2.0 0.00 0.00 0.00 51 1013.2
20260504214927 73 189 2.0 2.0 0.00 0.00 0.00 53 1013.3
20260504214423 73 199 3.0 3.0 0.00 0.00 0.00 51 1013.3
20260504213920 72 230 0.0 1.0 0.00 0.00 0.00 53 1013.4
20260504213416 72 207 2.0 2.0 0.00 0.00 0.00 53 1013.6
20260504212914 73 200 2.0 2.0 0.00 0.00 0.00 53 1013.6
20260504212409 72 181 0.0 1.0 0.00 0.00 0.00 54 1013.5
20260504211908 71 196 0.0 2.0 0.00 0.00 0.00 54 1013.7
20260504211403 71 227 0.0 3.0 0.00 0.00 0.00 55 1013.7
20260504210900 72 182 3.0 4.0 0.00 0.00 0.00 53 1013.9
20260504210357 71 206 1.0 3.0 0.00 0.00 0.00 54 1013.9
20260504205854 71 197 2.0 2.0 0.00 0.00 0.00 55 1014.1
20260504205352 71 196 1.0 2.0 0.00 0.00 0.00 54 1014.2
20260504204850 71 212 2.0 3.0 0.00 0.00 0.00 56 1014.2
20260504204349 70 187 1.0 2.0 0.00 0.00 0.00 56 1014.0
20260504203848 70 158 0.0 2.0 0.00 0.00 0.00 57 1014.4
20260504203344 69 174 1.0 1.0 0.00 0.00 0.00 57 1014.4
20260504202840 69 241 4.0 4.0 0.00 0.00 0.00 56 1014.4
20260504202337 68 198 0.0 2.0 0.00 0.00 0.00 59 1014.4
20260504201833 68 172 0.0 3.0 0.00 0.00 0.00 58 1014.6
20260504201331 67 193 1.0 3.0 0.00 0.00 0.00 61 1014.4
20260504200828 67 181 1.0 1.0 0.00 0.00 0.00 61 1014.6
20260504200325 67 181 2.0 3.0 0.00 0.00 0.00 60 1014.9
20260504195821 66 187 2.0 2.0 0.00 0.00 0.00 62 1014.9
20260504195317 65 209 1.0 3.0 0.00 0.00 0.00 63 1014.7
20260504194814 65 202 2.0 6.0 0.00 0.00 0.00 64 1014.9
20260504194310 66 180 2.0 2.0 0.00 0.00 0.00 62 1014.8
20260504193806 64 207 1.0 1.0 0.00 0.00 0.00 65 1014.7